ARABSAT-5A

Last updated on Wed Sep 17 2025 00:02:47 GMT+0000 (Coordinated Universal Time)

1 36745U 10032B 25259.58979870 .00000134 00000+0 00000+0 0 9993 2 36745 0.0616 43.6723 0004004 131.0325 63.8882 1.00270777 55903
UTC large
Height (km)
Speed (km/s)
/
Latitude / Longitude
Inclination (degrees)
Orbital Period (minutes)
Azimuth
Elevation
Range (km)
Doppler Factor

Next 0 passes for location: London (51.5072 / 0.1276)

Sorry there are no passes over London.